Lid_Strength_Index
4 4 4 5 5 4 4 4 5 5 5 5 4 4 5 5 3 2 1 0 -0 -0 0 0 2 2 1 1 1 2 2 2
5 5 5 5 5 5 5 5 5 6 6 6 6 6 5 6 5 4 4 2 2 2 0 0 0 1 1 1 2 3 3 3
6 6 6 6 6 6 6 6 6 7 6 6 7 7 5 5 5 6 6 6 5 4 4 2 1 1 1 2 1 3 2 2
7 7 8 7 7 7 6 7 7 8 8 8 8 8 7 7 8 7 6 6 5 6 5 3 2 1 1 1 1 2 3 2
8 8 8 9 8 8 8 8 8 8 9 9 10 10 10 9 9 8 8 7 7 6 6 6 5 4 1 1 1 1 2 3
9 8 9 9 9 9 9 9 9 9 10 10 11 11 11 10 9 9 9 8 7 6 5 5 5 5 3 1 2 2 1 2
9 8 9 10 10 10 10 10 11 10 10 11 11 12 11 11 11 10 9 9 8 7 6 6 4 4 4 2 1 2 2 2
9 10 11 11 11 12 11 12 12 11 12 12 12 12 12 12 11 10 10 10 9 9 8 7 7 5 3 4 2 2 2 2
10 11 11 12 12 12 13 12 13 12 12 12 12 12 12 12 11 10 10 10 9 9 8 8 7 6 5 4 4 1 2 2
11 11 12 12 13 13 13 13 13 12 13 13 13 12 12 12 11 10 10 10 9 8 7 7 7 7 6 4 3 3 1 2
11 11 12 12 13 14 14 13 13 13 13 12 12 12 12 11 11 11 10 10 9 8 8 7 7 6 5 5 4 1 1 2
12 12 12 12 13 14 14 13 13 13 13 12 12 12 11 11 11 11 10 10 10 10 9 9 8 6 5 5 4 3 2 2
12 12 13 13 14 14 14 13 13 13 12 11 12 11 11 12 12 12 11 11 10 10 10 9 8 7 5 5 6 4 2 2
13 13 13 14 13 14 14 14 14 13 12 12 12 12 12 12 13 12 12 12 12 12 12 10 9 8 8 3 4 4 2 2
13 14 14 14 14 14 14 14 13 12 12 13 13 13 12 12 13 13 13 13 13 13 12 12 12 11 11 8 4 4 2 2
13 14 14 14 14 14 13 13 13 13 13 13 13 13 13 13 14 14 14 14 15 15 14 14 14 14 13 12 7 2 2 2
14 14 14 14 14 14 13 14 13 13 14 14 15 15 14 15 15 15 16 16 16 16 16 16 16 15 14 13 9 9 9 9
14 14 14 14 14 13 13 13 13 15 15 16 16 16 17 16 16 16 17 17 17 18 17 16 16 16 15 15 14 14 13 13
14 14 14 14 13 13 13 13 15 16 17 17 16 17 18 17 17 17 17 18 18 19 18 17 17 16 16 15 16 16 16 16